Other Public Products
Issued by NWS Grand Forks, ND

Home | Current Version | Previous Version | Graphics & Text | Print | Product List | Glossary On
Versions: 1 2 3 4 5 6 7 8 9 10 11 12 13 14 15 16 17 18 19 20 21 22 23 24 25 26 27 28 29 30 31 32 33 34 35 36 37 38 39 40 41 42 43 44 45 46 47 48 49 50
000
FPUS83 KFGF 271231
OPUFGF
PRAIRIE TO PINES WEATHER ROUNDUP
NATIONAL WEATHER SERVICE EASTERN NORTH DAKOTA/GRAND FORKS ND
700 AM CDT WED JUL 27 2016

 **SATELLITE DATA USED TO AUGMENT SKY COVER AT AUTOMATED STATIONS**
 *****  WEATHER ACROSS EASTERN NORTH DAKOTA  *****

CITY           SKY/WX    TMP DP  RH WIND       PRES   REMARKS
GRAND FORKS    MOCLDY    61  58  90 NW7       30.04S
6HR MIN TEMP:  61; 6HR MAX TEMP:  69;

GRAND FORKS AF CLEAR     60  57  89 N7        30.06R
GRAND CITY NWS   N/A     59 N/A N/A VRB7        N/A
BUXTON           N/A     64  64  99 N3          N/A
DEVILS LAKE    CLEAR     60  57  89 N6        30.10R
6HR MIN TEMP:  60; 6HR MAX TEMP:  65;

FARGO          CLOUDY    65  61  87 N10       29.99S
6HR MIN TEMP:  65; 6HR MAX TEMP:  69; 6HR PCP:  0.02;

WAHPETON ARPT  CLOUDY    64  63  94 N6        29.98S
$$

 *****  WEATHER ACROSS CENTRAL AND WESTERN NORTH DAKOTA  *****

CITY           SKY/WX    TMP DP  RH WIND       PRES   REMARKS
JAMESTOWN      PTCLDY    61  60  97 NW6       30.06R
6HR MIN TEMP:  61; 6HR MAX TEMP:  65;

BISMARCK       PTCLDY    61  60  97 CALM      30.09S
6HR MIN TEMP:  57; 6HR MAX TEMP:  64;

MINOT          CLEAR     59  55  87 N7        30.11S
6HR MIN TEMP:  58; 6HR MAX TEMP:  66;

MINOT AFB      CLEAR     57  55  92 N2        30.11R
6HR MIN TEMP:  57; 6HR MAX TEMP:  65;

GARRISON         N/A     60  60 100 NE5       30.11R
6HR MIN TEMP:  58; 6HR MAX TEMP:  62;

WILLISTON      CLOUDY    62  54  74 NE5       30.12F
6HR MIN TEMP:  58; 6HR MAX TEMP:  65;

DICKINSON      MOCLDY    54  53  97 W5        30.12R FOG
6HR MIN TEMP:  51; 6HR MAX TEMP:  59;

HETTINGER      CLOUDY    59  57  93 N6        30.13F
6HR MIN TEMP:  51; 6HR MAX TEMP:  63;

$$

 *****  OTHER OBSERVATIONS NORTHEAST NORTH DAKOTA  *****

CITY           SKY/WX    TMP DP  RH WIND       PRES   REMARKS
WALHALLA       FAIR      59  55  88 N9        30.10S
LANGDON        PTSUNNY   59  57  94 N9        30.11F
CAVALIER       FAIR      59  57  94 N10       30.08S
GRAFTON        FAIR      59  59 100 N10       30.08R
CANDO          CLOUDY    59  57  94 NE7       30.14R
FORT TOTTEN      N/A     60  56  85 NE5       29.95S
ROLLA          CLOUDY    59  57  94 N6        30.15S
RUGBY          NOT AVBL
 ***** THE ABOVE OBSERVATIONS ARE NON NWS ARE NOT QUALITY
        CONTROLLED AND MAY MIS-REPORT RAIN FOR SNOW...
$$

 *****  OTHER OBSERVATIONS SOUTHEAST NORTH DAKOTA *****

CITY           SKY/WX    TMP DP  RH WIND       PRES   REMARKS
COOPERSTOWN    NOT AVBL
VALLEY CITY    FAIR      63  63 100 N8        30.07R
OAKES            N/A    N/A N/A N/A MISG        N/A
GWINNER        CLOUDY    64  64 100 N9        30.03R
SHEYENNE NWR     N/A     65  64  96 N5        29.95S
BUFFALO          N/A     64  60  89 N8          N/A
WYNDMERE         N/A     66  66 100 NW3         N/A
 ***** THE ABOVE OBSERVATIONS ARE NON NWS ARE NOT QUALITY
       CONTROLLED AND MAY MIS-REPORT RAIN FOR SNOW...
$$

  *****  WEATHER ACROSS NORTHERN MINNESOTA  *****

CITY           SKY/WX    TMP DP  RH WIND       PRES   REMARKS
FLAG ISLAND    PTSUNNY   64  55  72 NE10G16   30.04F
WARROAD        CLOUDY    66  63  88 NE7       30.04F
ROSEAU         MOCLDY    57  52  82 N5        30.04F
HALLOCK        CLOUDY    59  55  88 N8        30.05F
THF RVR FALLS  MOCLDY    61  55  81 N8        30.05R
6HR MIN TEMP:  61; 6HR MAX TEMP:  69; 6HR PCP:  0.13;

HALSTAD          N/A     63  61  92 N7          N/A
FOSSTON        CLOUDY    63  57  82 N5        30.04S
BAUDETTE       CLOUDY    62  56  80 N8        30.03S
6HR MIN TEMP:  61; 6HR MAX TEMP:  68;

WASKISH        CLOUDY    63  57  82 NE3       30.02R
CROOKSTON      CLOUDY    63  57  82 NE3       30.05R
$$
  *****  WEATHER ACROSS CENTRAL AND WEST MINNESOTA  *****

CITY           SKY/WX    TMP DP  RH WIND       PRES   REMARKS
BEMIDJI        MOCLDY    63  59  88 CALM      30.02R
PARK RAPIDS    LGT RAIN  65  62  90 NW7       30.01R
6HR MIN TEMP:  64; 6HR MAX TEMP:  71; 6HR PCP:  0.10;

WADENA         CLOUDY    63  61  94 N5        29.98S
DETROIT LAKES  CLOUDY    64  63  94 N3        30.00S
MOORHEAD       CLOUDY    64  61  88 N10       30.00S
FERGUS FALLS   DRIZZLE   66  66 100 NE5       29.98S
ELBOW LAKE     DRIZZLE   66  65  98 N3        29.99R
MORRIS MN      CLOUDY    64  63  94 N3        29.96R
STAPLES        LGT RAIN  64  63  94 N3        29.98S
WHEATON        CLOUDY    66  64  94 CALM      29.99S
$$
  *****  WEATHER ELSEWHERE ACROSS MINNESOTA  *****

CITY           SKY/WX    TMP DP  RH WIND       PRES   REMARKS
DULUTH         CLOUDY    66  62  87 SE5       30.00R
6HR MIN TEMP:  66; 6HR MAX TEMP:  71; 6HR PCP:  0.02;

INTRNTL FALLS  CLOUDY    65  56  72 E5        30.02S
6HR MIN TEMP:  64; 6HR MAX TEMP:  69;

ELY            PTSUNNY   64  57  77 NE6       30.02S
CLOQUET        CLOUDY    66  61  82 CALM      29.99R
BRAINERD       LGT RAIN  65  65 100 N3        29.97R
6HR MIN TEMP:  62; 6HR MAX TEMP:  65; 6HR PCP:  0.01;

HIBBING        CLOUDY    64  57  78 E3        30.00R
6HR MIN TEMP:  60; 6HR MAX TEMP:  66;

ALEXANDRIA     RAIN      66  63  90 CALM      29.99S FOG
6HR MIN TEMP:  66; 6HR MAX TEMP:  71; 6HR PCP:  0.26;

SAINT CLOUD    CLOUDY    67  67 100 CALM      29.96R
6HR MIN TEMP:  67; 6HR MAX TEMP:  68; 6HR PCP: TRACE;

MINNEAPOLIS    CLOUDY    76  68  76 SW6       29.96R
6HR MIN TEMP:  76; 6HR MAX TEMP:  80;

$$

  *****  WEATHER ACROSS SOUTH DAKOTA  *****

CITY           SKY/WX    TMP DP  RH WIND       PRES   REMARKS
SIOUX FALLS    MOCLDY    72  64  76 NW14      29.97R
6HR MIN TEMP:  69; 6HR MAX TEMP:  75;

BROOKINGS      CLOUDY    66  64  94 N8        29.98  FOG
WATERTOWN      PTCLDY    65  62  90 CALM      29.99S
6HR MIN TEMP:  65; 6HR MAX TEMP:  72; 6HR PCP:  0.13;

HURON          MOCLDY    65  63  93 NW3       29.98R
6HR MIN TEMP:  64; 6HR MAX TEMP:  75;

SISSETON         N/A     65  64  97 N9        29.98R
ABERDEEN       PTCLDY    67  64  90 N7        30.02R
6HR MIN TEMP:  66; 6HR MAX TEMP:  70;

MITCHELL       PTCLDY    68  62  81 NW10      29.98S
PIERRE         MOCLDY    63  61  93 NW5       30.02R
6HR MIN TEMP:  62; 6HR MAX TEMP:  69;

MOBRIDGE       CLOUDY    67  62  84 N3        30.03S
RAPID CITY     CLOUDY    64  61  90 N7        30.12F
6HR MIN TEMP:  61; 6HR MAX TEMP:  67;

$$

  *****  SOME WEATHER IN NEARBY STATES *****

CITY           SKY/WX    TMP DP  RH WIND       PRES   REMARKS
GLASGOW MT     LGT RAIN  62  60  93 VRB6      30.12R
6HR MIN TEMP:  61; 6HR MAX TEMP:  69; 6HR PCP:  0.29;

GREAT FALLS MT CLEAR     54  52  93 E6        30.16R
6HR MIN TEMP:  51; 6HR MAX TEMP:  60;

CHEYENNE WY    MOCLDY    59  44  57 NW13G24   30.26R
6HR MIN TEMP:  56; 6HR MAX TEMP:  63;

SCOTTSBLUFF NE CLOUDY    65  59  81 E7        30.16R
6HR MIN TEMP:  64; 6HR MAX TEMP:  68; 6HR PCP: TRACE;

OMAHA NE       CLOUDY    73  66  78 S10       29.92R
6HR MIN TEMP:  72; 6HR MAX TEMP:  75;

DES MOINES IA  MOCLDY    70  66  87 CALM      30.00R
6HR MIN TEMP:  70; 6HR MAX TEMP:  76;

DAVENPORT IA   SUNNY     66  64  93 CALM      30.03S
6HR MIN TEMP:  62; 6HR MAX TEMP:  66;

CHICAGO IL     MOSUNNY   72  66  81 CALM      30.02S
6HR MIN TEMP:  68; 6HR MAX TEMP:  74;

EAU CLAIRE WI  CLOUDY    71  69  93 S3        29.99R
6HR MIN TEMP:  69; 6HR MAX TEMP:  73;

LA CROSSE WI   MOSUNNY   73  70  90 S5        30.00R
6HR MIN TEMP:  70; 6HR MAX TEMP:  75;

$$

  *****  SOME NATIONAL WEATHER *****

CITY           SKY/WX    TMP DP  RH WIND       PRES   REMARKS
LA GUARDIA NY  MOSUNNY   78  61  55 NE6       29.95S
6HR MIN TEMP:  77; 6HR MAX TEMP:  81;                              C1F1C2F2C3F3C4F4C5F5C6F6C7F7C8F8C9F9CaFaCbFbCcFcCdFdCe!



USA.gov is the U.S. government's official web portal to all federal, state and local government web resources and services.